This demonstration page uses our WeatherBlox Daily Observations layout. Learn more.

Left ArrowRight Arrow

Hourly Observations for July 30, 2016

Temp ( °F °C ) Dew Point ( °F °C ) Humidity (%) Winds ( mph kmh ) Pressure ( in mb ) Visibility ( mi km ) Precip ( " mm )
12:15 am 00:15 Clear 69 20.3 64 17.8 86 86 SE 10 17 29.94 1014 10 16 N/A
12:35 am 00:35 Clear 68 20 64 17.8 87 87 SE 8 13 29.97 1015 10 16 N/A
12:55 am 00:55 Partly Cloudy 68 20.1 64 17.7 86 86 SE 9 15 29.97 1015 10 16 N/A
1:15 am 01:15 Partly Cloudy 68 20 64 17.8 87 87 SE 9 15 29.97 1015 10 16 N/A
1:35 am 01:35 Mostly Cloudy 68 20 64 17.8 87 87 SE 8 13 29.97 1015 10 16 N/A
1:55 am 01:55 Mostly Cloudy 67 19.7 64 17.6 88 88 SSE 7 11 29.97 1015 10 16 N/A
2:15 am 02:15 Partly Cloudy 67 19.5 64 17.5 88 88 SE 6 9 29.97 1015 10 16 N/A
2:35 am 02:35 Clear 67 19.5 63 17.2 87 87 SE 6 9 29.97 1015 10 16 N/A
2:55 am 02:55 Partly Cloudy 67 19.2 63 17.1 88 88 SE 5 7 29.97 1015 10 16 N/A
3:15 am 03:15 Mostly Cloudy 67 19.5 63 17 86 86 SSE 8 13 29.97 1015 10 16 N/A
3:35 am 03:35 Partly Cloudy 66 19 63 17 88 88 SSE 5 7 29.97 1015 10 16 N/A
3:55 am 03:55 Clear 66 18.7 62 16.7 88 88 SSE 8 13 29.97 1015 10 16 N/A
4:15 am 04:15 Clear 65 18.5 62 16.6 89 89 SSE 8 13 29.97 1015 10 16 N/A
4:35 am 04:35 Clear 65 18.5 62 16.5 88 88 SSE 7 11 29.97 1015 10 16 N/A
4:55 am 04:55 Clear 65 18.5 62 16.5 88 88 SE 6 9 29.97 1015 10 16 N/A
5:15 am 05:15 Clear 65 18.5 62 16.5 88 88 SE 7 11 29.94 1014 10 16 N/A
5:35 am 05:35 Clear 64 18 62 16.5 91 91 SSE 6 9 29.94 1014 10 16 N/A
5:55 am 05:55 Clear 65 18.1 62 16.6 91 91 SE 6 9 29.94 1014 10 16 N/A
6:15 am 06:15 Clear 65 18.1 62 16.5 90 90 SE 5 7 29.94 1014 10 16 N/A
6:35 am 06:35 Sunny 64 18 62 16.6 92 92 SE 5 7 29.94 1014 10 16 N/A
6:55 am 06:55 Sunny 64 18 62 16.6 92 92 SE 3 6 29.94 1014 10 16 N/A
7:15 am 07:15 Sunny 64 17.6 62 16.5 93 93 SE 3 6 29.94 1014 7 11 N/A
7:35 am 07:35 Sunny 64 18 63 17 94 94 SE 3 6 29.97 1015 7 11 N/A
7:55 am 07:55 Sunny 66 18.8 63 17.2 90 90 ESE 3 6 29.97 1015 10 16 N/A
8:15 am 08:15 Sunny 67 19.6 63 17.4 87 87 SE 5 7 29.97 1015 10 16 N/A
8:35 am 08:35 Partly Cloudy 68 20 64 17.6 86 86 E 8 13 29.97 1015 10 16 N/A
8:55 am 08:55 Mostly Cloudy 67 19.5 64 17.7 89 89 E 10 17 29.97 1015 10 16 N/A
9:15 am 09:15 Cloudy 68 19.8 64 17.7 88 88 E 8 13 29.97 1015 10 16 N/A
9:35 am 09:35 Cloudy 69 20.5 65 18.2 87 87 E 9 15 29.94 1014 10 16 N/A
9:55 am 09:55 Cloudy 69 20.7 65 18.1 85 85 E 13 20 29.94 1014 10 16 N/A
10:15 am 10:15 Cloudy 69 20.5 64 17.9 85 85 E 14 22 29.94 1014 10 16 N/A
10:35 am 10:35 Cloudy 68 20.2 64 17.8 86 86 E 15 24 29.94 1014 10 16 N/A
10:55 am 10:55 Cloudy 68 20.2 63 17 82 82 E 14 22 29.94 1014 10 16 N/A
11:15 am 11:15 Cloudy 70 21.1 63 17.2 79 79 ESE 13 20 29.94 1014 10 16 N/A
11:35 am 11:35 Cloudy 72 22.3 64 17.9 76 76 E 13 20 29.94 1014 10 16 N/A
11:55 am 11:55 Cloudy 73 22.6 65 18.2 76 76 ESE 13 20 29.94 1014 10 16 N/A
12:15 pm 12:15 Mostly Cloudy 74 23.1 66 18.7 76 76 ESE 14 22 29.94 1014 10 16 N/A
12:35 pm 12:35 Partly Cloudy 75 23.7 66 18.7 74 74 SE 12 19 29.88 1012 10 16 N/A
12:55 pm 12:55 Partly Cloudy 75 24 67 19.3 75 75 SE 10 17 29.88 1012 10 16 N/A
1:15 pm 13:15 Partly Cloudy 76 24.6 67 19.6 74 74 SSE 12 19 29.88 1012 10 16 N/A
1:35 pm 13:35 Partly Cloudy 77 25 68 19.9 73 73 SSE 12 19 29.88 1012 10 16 N/A
1:55 pm 13:55 Mostly Cloudy 78 25.7 69 20.5 73 73 SSE 12 19 29.88 1012 10 16 N/A
2:15 pm 14:15 Mostly Cloudy 79 26.2 69 20.8 72 72 SSE 13 20 29.85 1011 10 16 N/A
2:35 pm 14:35 Partly Cloudy 80 26.9 69 20.8 69 69 S 12 19 29.83 1010 10 16 N/A
2:55 pm 14:55 Partly Cloudy 82 27.9 69 20.8 65 65 S 9 15 29.83 1010 10 16 N/A
3:15 pm 15:15 Partly Cloudy 83 28.4 69 20.8 63 63 SSE 14 22 29.83 1010 10 16 N/A
3:35 pm 15:35 Sunny 83 28.6 68 20.2 60 60 SSE 12 19 29.83 1010 10 16 N/A
3:55 pm 15:55 Partly Cloudy 83 28.6 69 20.3 61 61 SSE 12 19 29.80 1009 10 16 N/A
4:15 pm 16:15 Partly Cloudy 84 29 68 20.1 59 59 SSE 12 19 29.80 1009 10 16 N/A
4:35 pm 16:35 Partly Cloudy 85 29.2 68 20 58 58 SE 12 19 29.80 1009 10 16 N/A
4:55 pm 16:55 Sunny 84 29.1 69 20.3 59 59 SE 12 19 29.80 1009 10 16 N/A
5:15 pm 17:15 Partly Cloudy 85 29.2 69 20.4 59 59 SSE 9 15 29.80 1009 10 16 N/A
5:35 pm 17:35 Sunny 85 29.2 67 19.6 56 56 SE 10 17 29.80 1009 10 16 N/A
5:55 pm 17:55 Sunny 85 29.2 67 19.5 56 56 SSE 9 15 29.80 1009 10 16 N/A
6:15 pm 18:15 Sunny 84 29 67 19.7 57 57 SSE 13 20 29.77 1008 10 16 N/A
6:35 pm 18:35 Sunny 84 28.9 68 19.9 58 58 SSE 9 15 29.77 1008 10 16 N/A
6:55 pm 18:55 Sunny 83 28.6 67 19.6 58 58 SE 12 19 29.77 1008 10 16 N/A
7:15 pm 19:15 Sunny 83 28.5 68 19.8 59 59 SE 10 17 29.77 1008 10 16 N/A
7:35 pm 19:35 Sunny 83 28.1 67 19.7 60 60 SE 10 17 29.77 1008 10 16 N/A
7:55 pm 19:55 Sunny 82 27.6 68 20.2 64 64 SE 9 15 29.77 1008 10 16 N/A
8:15 pm 20:15 Sunny 81 27 68 20.1 66 66 SE 7 11 29.77 1008 10 16 N/A
8:35 pm 20:35 Sunny 79 26.2 68 20.2 70 70 SE 9 15 29.77 1008 10 16 N/A
8:55 pm 20:55 Sunny 78 25.7 68 20.1 71 71 SE 8 13 29.80 1009 10 16 N/A
9:15 pm 21:15 Clear 78 25.3 68 20 73 73 SE 9 15 29.80 1009 10 16 N/A
9:35 pm 21:35 Clear 76 24.7 68 20 75 75 ESE 8 13 29.80 1009 10 16 N/A
9:55 pm 21:55 Clear 76 24.5 68 20.2 77 77 ESE 9 15 29.83 1010 10 16 N/A
10:15 pm 22:15 Clear 75 24 68 20.2 79 79 SE 12 19 29.83 1010 10 16 N/A
10:35 pm 22:35 Clear 74 23.6 68 20.2 81 81 SE 15 24 29.83 1010 10 16 N/A
10:55 pm 22:55 Clear 74 23.2 68 20 82 82 SE 12 19 29.83 1010 10 16 N/A
11:15 pm 23:15 Clear 73 23 68 20 83 83 SE 10 17 29.83 1010 10 16 N/A
11:35 pm 23:35 Clear 73 22.7 68 20 85 85 SE 13 20 29.85 1011 10 16 N/A
11:55 pm 23:55 Clear 72 22.4 68 20 86 86 SE 10 17 29.85 1011 10 16 N/A

Powered by AerisWeather